OK5AM-13 Weather Reports


time (UTC)temp
C
wind
direction
speed
KPH
gust
KPH
rain 1hr
cm
rain 24hr
cm
rain mn
cm
humidity
%
barometer
mb
20260502122600 22 0.0 0.0 0.00 0.00 0.00 53 9.3
20260502113431 21 0.0 0.0 0.00 0.00 0.00 56 9.3
20260502113309 21 0.0 0.0 0.00 0.00 0.00 65 9.3
20260502110722 20 0.0 0.0 0.00 0.00 0.00 62 9.3
20260502104132 20 0.0 0.0 0.00 0.00 0.00 79 9.4
20260502101543 19 0.0 0.0 0.00 0.00 0.00 78 9.4
20260502071459 13 0.0 0.0 0.00 0.00 0.00 10 9.4
20260502064910 12 0.0 0.0 0.00 0.00 0.00 10 9.4
20260502062320 11 0.0 0.0 0.00 0.00 0.00 10 9.4
20260502055729 9 0.0 0.0 0.00 0.00 0.00 10 9.4
20260502053141 7 0.0 0.0 0.00 0.00 0.00 10 9.4
20260502050554 5 0.0 0.0 0.00 0.00 0.00 10 9.4
20260502044007 5 0.0 0.0 0.00 0.00 0.00 10 9.4
20260502034824 5 0.0 0.0 0.00 0.00 0.00 10 9.4
20260502032238 5 0.0 0.0 0.00 0.00 0.00 10 9.4
20260502025650 5 0.0 0.0 0.00 0.00 0.00 10 9.4
20260502023103 5 0.0 0.0 0.00 0.00 0.00 10 9.4
20260502020515 6 0.0 0.0 0.00 0.00 0.00 10 9.4
20260502013927 6 0.0 0.0 0.00 0.00 0.00 10 9.4
20260502011340 6 0.0 0.0 0.00 0.00 0.00 10 9.4
20260502004752 6 0.0 0.0 0.00 0.00 0.00 10 9.4
20260502002205 6 0.0 0.0 0.00 0.00 0.00 10 9.4
20260501235617 6 0.0 0.0 0.00 0.00 0.00 10 9.4
20260501233031 7 0.0 0.0 0.00 0.00 0.00 10 9.4
20260501230445 7 0.0 0.0 0.00 0.00 0.00 10 9.4
20260501223859 8 0.0 0.0 0.00 0.00 0.00 10 9.4
20260501221312 8 0.0 0.0 0.00 0.00 0.00 10 9.4
20260501214726 9 0.0 0.0 0.00 0.00 0.00 10 9.4
20260501212138 10 0.0 0.0 0.00 0.00 0.00 10 9.4
20260501205552 10 0.0 0.0 0.00 0.00 0.00 10 9.4
20260501203002 10 0.0 0.0 0.00 0.00 0.00 10 9.4
20260501200415 11 0.0 0.0 0.00 0.00 0.00 10 9.4
20260501193830 11 0.0 0.0 0.00 0.00 0.00 10 9.4
20260501191244 12 0.0 0.0 0.00 0.00 0.00 10 9.4
20260501184658 13 0.0 0.0 0.00 0.00 0.00 10 9.4
20260501175526 16 0.0 0.0 0.00 0.00 0.00 98 9.4